www.pogodaiklimat.ru
ПОГОДА в Бартсвилле
Время
(UTC), дата
05:53 15.02
06:53 15.02
07:53 15.02
08:53 15.02
09:53 15.02
10:53 15.02
11:53 15.02
12:53 15.02
13:53 15.02
14:53 15.02
15:53 15.02
16:53 15.02
17:53 15.02
18:53 15.02
20:53 15.02
21:53 15.02
22:53 15.02
23:53 15.02
00:53 15.02
01:53 15.02
02:53 15.02
03:53 15.02
04:53 15.02
05:53 16.02
06:53 16.02
07:53 16.02
08:53 16.02
09:53 16.02
10:53 16.02
11:53 16.02
12:53 16.02
13:53 16.02
14:13 16.02
14:51 16.02
14:53 16.02
15:19 16.02
15:53 16.02
16:53 16.02
17:26 16.02
17:53 16.02
18:53 16.02
19:53 16.02
20:53 16.02
21:48 16.02
21:53 16.02
22:09 16.02
22:53 16.02
23:53 16.02
Ветер
(напр.,м/с)
Видим. Явления Облачность Т
(С)
Тd
(С)
f
(%)
Тe
(С)
Тes
(С)
Комфортность P
(гПа)
Po
(гПа)
Тmin
(С)
Tmax
(С)
R
(мм)
R24
(мм)
S
(см)
ЮВ 4 16 км ясно -0.6 -3.3 82 -7 -7 1022.8 996.5
Ю 4 16 км ясно +0.6 -2.8 78 -5 -5 1022.1 995.9
Ю 4 16 км ясно +0.6 -2.8 78 -5 -5 1021.3 995.2
ЮВ 4 16 км ясно 0.0 -3.3 78 -6 -6 1020.9 994.9
Ю 6
{11}
16 км ясно +2.2 -3.3 67 -4 -4 1020.1 993.9
Ю 5
{10}
16 км ясно +2.8 -3.3 64 -3 -3 1019.8 993.9 -0.6 +2.8
Ю 6
{11}
16 км ясно +3.3 -2.8 64 -2 -2 1019.2 993.2
Ю 5
{10}
16 км ясно +3.3 -2.2 67 -2 -2 1019.5 993.2
Ю 7
{11}
16 км ясно +6.1 -1.1 60 +1 +1 1020.0 993.9
Ю 5
{9}
16 км ясно +6.7 -0.6 60 +3 +4 1019.9 993.9
Ю 7
{12}
16 км 2/2 1500 м +9.4 +1.1 56 +5 +6 1019.5 993.6
ЮЗ 6
{10}
16 км 8/8 1440 м +11.7 +1.7 50 +9 +9 1019.0 993.2 +2.8 +12.2
Ю 4 16 км 10/10 1320 м +11.7 +2.2 52 +10 +10 1018.3 992.2
ЮЗ 3 16 км 10/10 1350 м +13.3 +2.8 49 +12 +12 1017.4 991.6
ЮЗ 2 16 км 10/10 1440 м +13.3 +2.8 49 +13 +13
ЮЗ 2 16 км 10/10 1500 м +12.8 +2.8 51 +12 +12
0 16 км 10/10 1500 м +11.1 +3.3 59 +11 +11 +11.1 +13.9
Ю 1 16 км ясно +5.6 +2.2 79 +4 +4
0 16 км 5/5 1500 м +2.2 +0.6 89 +1 +1
С 3 16 км 2/2 1500 м +5.0 +1.7 79 +2 +2
С 1 16 км 2/2 1500 м +4.4 +1.1 79 +2 +2
С 1 16 км ясно +2.8 0.0 82 0 0
С 1 16 км ясно +1.7 0.0 88 -1 -1 +1.1 +11.1
0 16 км ясно -0.6 -1.7 92 -2 -2
0 16 км ясно +1.1 -0.6 88 -0 -0
С 1 16 км ясно +0.6 -1.1 88 -2 -2
0 16 км ясно +0.6 -0.6 92 -1 -1
0 16 км ясно 0.0 -1.1 92 -1 -1
0 16 км ясно -1.1 -1.7 96 -2 -2 -1.1 +1.7
0 16 км ясно -0.6 -1.1 96 -2 -2
0 16 км 8/8 810 м -1.1 -1.7 96 -2 -2
0 16 км н/о +3.3 +1.1 85 +2 +2 1018.5 992.6
0 16 км 10/10 690 м +3.9 +1.7 86 +3 +3 992.6
В 2 16 км 5/5 780 м +5.0 +2.0 81 +2 +3 992.2
В 2 16 км 2/2 780 м +5.0 +1.7 79 +2 +4 1018.2 992.2
0 16 км 8/8 720 м +5.0 +1.7 79 +4 +6 992.2
0 16 км 10/10 690 м +6.1 +2.8 79 +5 +5 1018.5 992.6
0 16 км 10/10 660 м +9.4 +3.3 66 +9 +9 1016.4 990.6 -1.7 +9.4
0 16 км 10/10 780 м +10.6 +3.9 63 +10 +10 990.9
Ю 1 16 км 10/10 840 м +10.6 +4.4 65 +10 +10 1016.3 990.6
нст 1 16 км 10/10 630 м +12.2 +5.0 61 +12 +12 1014.2 988.6
0 16 км 10/10 630 м +12.2 +5.6 64 +12 +12 1013.9 988.3
0 16 км 10/10 630 м +12.2 +6.1 66 +12 +12 1013.6 987.9
В 3 16 км 10/10 720 м +12.0 +7.0 71 +10 +10 987.3
В 3 16 км 10/10 720 м +12.2 +7.2 71 +11 +11 1012.9 987.3
ЮВ 4 16 км 10/10 630 м +12.2 +7.8 74 +10 +10 987.3
ЮВ 3 16 км 10/10 600 м +11.7 +7.8 77 +10 +10 1013.1 987.3 +9.4 +12.8
0 16 км 10/10 540 м +11.1 +7.8 80 +11 +11 1013.4 987.6
Местоположение метеостанции Bartlesville Municipal Airport: широта 36.7683 долгота -96.0261 высота над уровнем моря 217 м.
В архиве по умолчанию представлена погода в Бартсвилле за последние 1-2 суток. Обновление информации о фактической погоде в базе происходит ежечасно! Архивные данные за месяц целиком и за предыдущие месяцы Вы можете получить, выбрав интересующий диапазон дат из раскрывающегося списка и нажав кнопку "Ввод!".
Внимание! Архив погоды МЕТАР в базе сайта по станциям, не включенным в климатический монитор, хранится не более 60 дней. Нет смысла пытаться выбрать более раннюю дату.
*Определитесь, кто Вы:
Внимание! Время в таблицах - всемирное. Для получения местного времени необходимо прибавить поправку, которая равна ч.
Смотрите также архив погоды в соседних городах и на ближайших метеорологических станциях:
Партнеры нашего сайта:      
Пояснения к столбцам:
  • Ветер - указаны скорость ветра в м/с - средняя за 10 мин, порывы в срок и между сроками (в фигурных скобках) и направление, откуда дует ветер: С - северный,
  • СВ - северо-восточный, В - восточный, ЮВ - юго-восточный, Ю - южный, ЮЗ - юго-западный, З - западный, СЗ - северо-западный.
  • Видимость - горизонтальная дальность видимости в метрах или километрах. При видимости от 1 до 10 км при отсутствии осадков обычно наблюдается дымка, при ухудшении видимости до 1 км и менее - туман. В сухую погоду видимость может ухудшаться дымом, пылью или мглою.
  • Явления - указаны атмосферные явления, наблюдавшиеся в срок или в последний час перед сроком; фигурными скобками обозначены явления, наблюдавшиеся между сроками (за 1-3 часа до срока); квадратными скобками обозначены град или гололедные отложения с указанием их диаметра в мм.
  • Облачность - указаны через наклонную черту общая и нижняя облачность в баллах и высота нижней границы облаков в метрах; квадратными скобками обозначены формы облаков: Ci - перистые, Cs - перисто-слоистые, Cc - перисто-кучевые, Ac - высококучевые, As - высокослоистые, Sc - слоисто-кучевые, Ns - слоисто-дождевые, Cu - кучевые, Cb - кучево-дождевые. Подробнее классификацию облаков см. в Атласе облаков (PDF).
  • T - Температура воздуха - температура, измеренная на высоте 2 м над землей.
  • Td - Температура точки росы - температура, при понижении до которой содержащийся в воздухе водяной пар достигнет насыщения.
  • f - Относительная влажность воздуха - влажноcть воздуха, измеренная на высоте 2 м над землей.
  • Te - Эффективная температура - температура, которую ощущает одетый по сезону человек в тени. Характеристика душности погоды. При расчете учитывается влияние влажности воздуха и скорости ветра на теплоощущения человека.
  • Tes - Эффективная температура на солнце - температура, которую ощущает человек, с поправкой на солнечный нагрев. Характеристика знойности погоды. Зависит от высоты солнца над горизонтом, облачности и скорости ветра. Ночью, в пасмурную погоду, а также при ветре 12 м/с и более поправка равна нулю.
  • P - Атмосферное давление - приведенное к уровню моря атмосферное давление.
  • Po - Атмосферное давление - измеренное на уровне метеостанции атмосферное давление.
  • Tmin - Минимальная температура - минимум температуры воздуха на высоте 2 м над землей.
  • Tmax - Максимальная температура - максимум температуры воздуха на высоте 2 м над землей.
  • R - Количество осадков - Количество выпавших осадков за период времени, мм. При наведении курсора мыши на число - период времени, за который выпало указанное количество осадков.
  • R24 - Количество осадков - Количество выпавших осадков за 24 часа, мм.
  • S - Снежный покров - Высота снежного покрова, см. При наведении курсора мыши на число - состояние снежного покрова и степень покрытия местности в баллах.